Printer-friendly version

IAU Minor Planet Center

Minor Planet Center

MPEC 2001-W40: 2001 WW1

The following Minor Planet Electronic Circular may be linked-to from your own Web pages, but must not otherwise be redistributed electronically.


Read MPEC 2001-W39 Read MPEC 2001-W41


M.P.E.C. 2001-W40                                Issued 2001 Nov. 21, 00:11 UT

     The Minor Planet Electronic Circulars contain information on unusual
         minor planets and routine data on comets.  They are published
   on behalf of Commission 20 of the International Astronomical Union by the
          Minor Planet Center, Smithsonian Astrophysical Observatory,
                          Cambridge, MA 02138, U.S.A.

             Prepared using the Tamkin Foundation Computer Network

                              MPC@CFA.HARVARD.EDU
          URL http://cfa-www.harvard.edu/iau/mpc.html  ISSN 1523-6714

                                   2001 WW1

Observations:
     K01W01W* C2001 11 18.29409 03 19 09.48 +00 20 30.4          18.8        704
     K01W01W  C2001 11 18.30910 03 19 03.80 +00 22 39.6          19.5        704
     K01W01W  C2001 11 18.32409 03 18 58.06 +00 24 49.2          19.5        704
     K01W01W  C2001 11 18.33910 03 18 52.38 +00 26 58.4          19.1        704
     K01W01W  C2001 11 19.20942 03 13 39.23 +02 34 06.3          18.5        704
     K01W01W  C2001 11 19.22433 03 13 33.35 +02 36 19.4          18.5        704
     K01W01W  C2001 11 19.22749 03 13 32.12 +02 36 47.5          18.9        704
     K01W01W  C2001 11 19.23904 03 13 27.56 +02 38 30.5          18.9        704
     K01W01W  C2001 11 19.24311 03 13 25.89 +02 39 06.8          19.3        704
     K01W01W  C2001 11 19.25391 03 13 21.70 +02 40 43.6          19.0        704
     K01W01W  C2001 11 19.25755 03 13 20.17 +02 41 16.0          19.0        704
     K01W01W  C2001 11 19.26863 03 13 15.86 +02 42 55.3          19.0        704
     K01W01W  C2001 11 19.27263 03 13 14.23 +02 43 30.6          19.2        704
     K01W01W  C2001 11 19.99516 03 08 42.96 +04 32 21.0                      587
     K01W01W  C2001 11 19.99825 03 08 41.67 +04 32 50.2                      587
     K01W01W  C2001 11 20.24810 03 07 07.38 +05 11 16.7          17.9 R      649
     K01W01W  C2001 11 20.24971 03 07 06.73 +05 11 31.7          17.9 R      649
     K01W01W  C2001 11 20.25212 03 07 05.75 +05 11 53.9          17.8 R      649
     K01W01W  C2001 11 20.89347 03 02 59.50 +06 51 26.4          17.7 R      046
     K01W01W  C2001 11 20.89409 03 02 59.29 +06 51 31.5                      046
     K01W01W  C2001 11 20.89656 03 02 58.20 +06 51 55.6                      046
     K01W01W  C2001 11 20.89714 03 02 57.91 +06 52 02.0                      046
     K01W01W  C2001 11 20.89787 03 02 57.60 +06 52 08.3          17.5 R      046

Observer details:
046 Klet.  Observer M. Tichy.  0.57-m f/5.2 reflector + CCD.
587 Sormano.  Observers F. Manca, V. Giuliani.  0.5-m reflector + CCD.
649 Powell Observatory, Louisburg.  Observers K. Smalley, R. Fredrick.
    Measurer K. Smalley.  0.75-m Newtonian + CCD.
704 Lincoln Laboratory ETS, New Mexico.  Observers M. Blythe, F. Shelly,
    M. Bezpalko, R. Huber, L. Manguso, S. Adams, J. Piscitelli.  Measurers
    J. Stuart, R. Sayer, J. B. Evans, H. Viggh.  1.0-m f/2.15 reflector + CCD.

Orbital elements:
2001 WW1
Epoch 2001 Nov. 7.0 TT = JDT 2452220.5                  MPC
M 312.39681              (2000.0)            P               Q
n   0.73287490     Peri.   44.44711     -0.20245539     -0.92333348
a   1.2183802      Node    59.86545     +0.76007870     -0.35825066
e   0.1255052      Incl.   22.16550     +0.61748860     +0.13824523
P   1.34           H   21.7           G   0.15
From 23 observations 2001 Nov. 18-20.

Ephemeris:
2001 WW1                 a,e,i = 1.22, 0.13, 22                  q = 1.0655
Date    TT    R. A. (2000) Decl.     Delta      r     Elong.  Phase     V
2001 11 17    03 26.68   -02 38.7    0.130    1.111   158.4    19.1    18.5
2001 11 22    02 55.69   +09 47.8    0.120    1.104   163.3    14.9    18.1
2001 11 27    02 20.33   +23 14.0    0.121    1.097   154.2    23.0    18.4
2001 12 02    01 43.06   +35 05.5    0.131    1.090   140.8    34.9    18.9
2001 12 07    01 06.95   +44 01.1    0.148    1.085   129.0    44.9    19.5
2001 12 12    00 34.63   +50 13.6    0.171    1.080   119.9    52.3    20.0
2001 12 17    00 07.53   +54 31.3    0.195    1.075   112.9    57.4    20.4
2001 12 22    23 45.79   +57 37.5    0.221    1.072   107.7    61.0    20.8
2001 12 27    23 28.79   +60 01.5    0.247    1.069   103.6    63.4    21.1
2002 01 01    23 15.73   +62 00.7    0.273    1.067   100.4    65.0    21.3
2002 01 06    23 05.88   +63 45.7    0.298    1.066    97.9    66.0    21.5
2002 01 11    22 58.72   +65 23.2    0.321    1.065    95.9    66.7    21.7
2002 01 16    22 53.80   +66 58.0    0.343    1.066    94.3    67.0    21.9

Brian G. Marsden             (C) Copyright 2001 MPC           M.P.E.C. 2001-W40

Read MPEC 2001-W39 Read MPEC 2001-W41


Our Web policy. Index to the CBAT/MPC/ICQ pages.


Valid HTML 4.01!